DW9447 Weather Reports


time (UTC)temp
C
wind
direction
speed
KPH
gust
KPH
rain 1hr
cm
rain 24hr
cm
rain mn
cm
humidity
%
barometer
mb
20260504214342 28 152 4.8 12.9 0.00 0.03 0.00 34 1011.8
20260504213841 28 202 4.8 12.9 0.00 0.03 0.00 32 1011.8
20260504213347 28 242 3.2 12.9 0.00 0.03 0.00 34 1011.8
20260504212840 28 211 3.2 12.9 0.00 0.03 0.00 33 1011.9
20260504212341 28 207 3.2 12.9 0.00 0.03 0.00 34 1011.9
20260504211840 28 196 3.2 12.9 0.00 0.03 0.00 34 1011.9
20260504211340 28 228 3.2 9.7 0.00 0.03 0.00 34 1012.0
20260504210335 28 192 3.2 11.3 0.00 0.03 0.00 37 1012.0
20260504205836 28 217 4.8 14.5 0.00 0.03 0.00 36 1012.1
20260504205336 28 250 4.8 14.5 0.00 0.03 0.00 36 1012.2
20260504203835 28 206 3.2 9.7 0.00 0.03 0.00 36 1012.2
20260504202835 28 195 6.4 14.5 0.00 0.03 0.00 36 1012.5
20260504202336 29 219 6.4 14.5 0.00 0.03 0.00 34 1012.4
20260504201836 29 240 3.2 11.3 0.00 0.03 0.00 33 1012.5
20260504201336 29 207 3.2 11.3 0.00 0.03 0.00 33 1012.6
20260504200838 29 216 3.2 9.7 0.00 0.03 0.00 35 1012.8
20260504200336 29 248 3.2 9.7 0.00 0.03 0.00 36 1012.8
20260504194835 28 213 4.8 11.3 0.00 0.03 0.00 35 1013.1
20260504193832 28 47 3.2 14.5 0.00 0.03 0.00 34 1013.1
20260504193332 28 205 3.2 9.7 0.00 0.03 0.00 34 1013.2
20260504192832 28 347 3.2 9.7 0.00 0.03 0.00 37 1013.2
20260504192331 28 189 3.2 9.7 0.00 0.03 0.00 36 1013.3
20260504191832 28 222 3.2 9.7 0.00 0.03 0.00 35 1013.3
20260504191332 28 335 3.2 9.7 0.00 0.03 0.00 35 1013.3
20260504190832 28 201 3.2 9.7 0.00 0.03 0.00 35 1013.4
20260504190327 28 162 4.8 9.7 0.00 0.03 0.00 38 1013.4
20260504185328 28 214 4.8 11.3 0.00 0.03 0.00 36 1013.5
20260504184327 28 94 3.2 14.5 0.00 0.03 0.00 41 1013.5
20260504183827 28 262 3.2 14.5 0.00 0.05 0.00 39 1013.6
20260504182827 27 246 4.8 14.5 0.00 0.05 0.00 40 1013.7
20260504182324 27 207 6.4 14.5 0.00 0.05 0.00 40 1013.8
20260504181821 27 286 6.4 14.5 0.00 0.05 0.00 41 1013.7
20260504181321 27 245 4.8 14.5 0.00 0.05 0.00 39 1013.9
20260504180820 27 231 3.2 9.7 0.00 0.05 0.00 39 1014.0
20260504180323 27 198 4.8 12.9 0.00 0.05 0.00 40 1014.0
20260504175822 26 210 6.4 12.9 0.00 0.05 0.00 40 1014.1
20260504175318 27 252 6.4 12.9 0.00 0.05 0.00 39 1014.1
20260504174319 27 252 4.8 12.9 0.00 0.05 0.00 39 1014.2
20260504173816 27 236 3.2 11.3 0.00 0.05 0.00 41 1014.2
20260504173314 26 290 3.2 11.3 0.00 0.05 0.00 44 1014.2
20260504172311 26 249 6.4 14.5 0.00 0.05 0.00 43 1014.4
20260504171811 26 248 6.4 12.9 0.00 0.05 0.00 43 1014.5
20260504171308 26 237 6.4 14.5 0.00 0.05 0.00 42 1014.6
20260504170808 26 214 6.4 14.5 0.00 0.05 0.00 44 1014.6
20260504170308 26 208 6.4 12.9 0.00 0.05 0.00 44 1014.7
20260504160258 24 264 6.4 11.3 0.00 0.05 0.00 48 1015.7
20260504151148 23 258 3.2 9.7 0.00 0.05 0.00 53 1015.8
20260504150636 22 207 4.8 9.7 0.00 0.05 0.00 53 1015.8
20260504150130 22 217 6.4 14.5 0.00 0.05 0.00 52 1015.9
20260504141111 21 228 3.2 6.4 0.00 0.05 0.00 59 1016.3
20260504140614 20 217 3.2 6.4 0.00 0.05 0.00 58 1016.2
20260504140111 20 239 1.6 6.4 0.00 0.05 0.00 59 1016.3
20260504100531 8 261 0.0 0.0 0.00 0.05 0.00 86 1015.6
20260504081526 9 221 0.0 0.0 0.00 0.05 0.00 83 1015.4
20260504081023 9 221 0.0 0.0 0.00 0.05 0.00 84 1015.4
20260504080519 9 221 0.0 0.0 0.00 0.05 0.00 83 1015.4
20260504045318 10 221 0.0 0.0 0.03 0.08 0.08 76 1017.0
20260504044811 11 221 0.0 0.0 0.03 0.08 0.08 75 1016.9
20260504044305 11 221 0.0 0.0 0.03 0.08 0.08 74 1017.0
20260504043755 11 221 0.0 0.0 0.03 0.08 0.08 74 1017.0
20260504042743 11 221 0.0 0.0 0.03 0.08 0.08 73 1017.2
20260504041727 11 221 0.0 0.0 0.03 0.08 0.08 74 1017.2
20260504040711 11 221 0.0 0.0 0.00 0.05 0.05 73 1017.2
20260504040205 11 221 0.0 1.6 0.00 0.05 0.05 73 1017.2
20260504035700 11 221 0.0 1.6 0.00 0.05 0.05 73 1017.3
20260504035154 11 221 0.0 0.0 0.00 0.05 0.05 73 1017.4
20260504034653 12 221 0.0 0.0 0.00 0.05 0.05 72 1017.3
20260504034150 12 221 0.0 0.0 0.00 0.05 0.05 71 1017.3
20260504033649 12 221 0.0 0.0 0.00 0.05 0.05 69 1017.3
20260504033159 12 221 0.0 0.0 0.00 0.05 0.05 69 1017.3
20260504032644 12 221 0.0 0.0 0.00 0.05 0.05 69 1017.4
20260504032143 12 221 0.0 0.0 0.00 0.05 0.05 67 1017.3
20260504031642 12 221 0.0 0.0 0.00 0.05 0.05 67 1017.4
20260504031142 12 221 0.0 0.0 0.00 0.05 0.05 67 1017.4
20260504030643 12 221 0.0 0.0 0.00 0.05 0.05 65 1017.3
20260504030146 13 221 0.0 0.0 0.00 0.05 0.05 65 1017.4
20260504025641 13 221 0.0 0.0 0.00 0.05 0.05 65 1017.4
20260504024641 13 221 0.0 0.0 0.00 0.05 0.05 64 1017.4
20260504024138 13 221 0.0 0.0 0.00 0.05 0.05 64 1017.4
20260504023635 13 221 0.0 0.0 0.00 0.05 0.05 63 1017.5
20260504023137 13 221 0.0 0.0 0.00 0.05 0.05 63 1017.6
20260504022636 14 221 0.0 0.0 0.00 0.05 0.05 62 1017.5
20260504022137 14 222 0.0 0.0 0.00 0.05 0.05 62 1017.7
20260504021637 14 222 0.0 0.0 0.00 0.05 0.05 60 1017.7
20260504021134 15 222 0.0 0.0 0.00 0.05 0.05 60 1017.5
20260504020635 15 222 0.0 0.0 0.00 0.05 0.05 58 1017.5
20260504020134 15 222 0.0 0.0 0.00 0.05 0.05 58 1017.3
20260504015634 15 222 0.0 0.0 0.00 0.05 0.05 58 1017.3
20260504015132 15 222 0.0 0.0 0.00 0.05 0.05 57 1017.3
20260504014630 16 222 0.0 0.0 0.00 0.05 0.05 56 1017.2
20260504014133 16 221 0.0 0.0 0.00 0.05 0.05 55 1017.1
20260504013631 16 221 0.0 0.0 0.00 0.05 0.05 56 1017.0
20260504013129 16 221 0.0 0.0 0.00 0.05 0.05 54 1017.0
20260504012628 16 221 0.0 0.0 0.00 0.05 0.05 55 1017.0
20260504012128 17 221 0.0 0.0 0.00 0.05 0.05 54 1017.0
20260504011628 17 221 0.0 0.0 0.00 0.05 0.05 52 1016.9
20260504011126 17 221 0.0 0.0 0.00 0.05 0.05 52 1016.8
20260504010624 17 221 0.0 0.0 0.00 0.05 0.05 51 1016.8
20260504010124 17 221 0.0 0.0 0.00 0.05 0.05 49 1016.8
20260504005624 18 221 0.0 0.0 0.00 0.05 0.05 48 1016.6
20260504005122 18 221 0.0 0.0 0.00 0.05 0.05 45 1016.7
20260504004625 18 221 0.0 0.0 0.00 0.05 0.05 45 1016.6
20260504003620 19 221 0.0 0.0 0.00 0.05 0.05 44 1016.6
20260504003118 19 221 0.0 0.0 0.00 0.05 0.05 44 1016.5
20260504002116 19 223 0.0 0.0 0.00 0.05 0.05 43 1016.6
20260504001616 20 223 0.0 1.6 0.00 0.05 0.05 42 1016.7
20260504001116 20 223 0.0 1.6 0.00 0.05 0.05 42 1016.7
20260504000616 20 223 0.0 4.8 0.00 0.05 0.05 42 1016.8
20260504000114 20 223 1.6 4.8 0.00 0.05 0.05 43 1016.9
20260503235612 20 229 1.6 4.8 0.00 0.05 0.05 41 1016.9
20260503235111 20 231 1.6 4.8 0.00 0.05 0.05 40 1016.9
20260503234612 20 234 1.6 4.8 0.00 0.05 0.05 40 1016.9
20260503234110 20 240 1.6 4.8 0.00 0.05 0.05 39 1017.0
20260503233610 20 225 1.6 3.2 0.00 0.05 0.05 40 1017.0
20260503233110 20 221 3.2 6.4 0.00 0.05 0.05 38 1017.1
20260503232610 21 243 3.2 6.4 0.00 0.05 0.05 37 1017.1
20260503231110 21 221 3.2 6.4 0.00 0.05 0.05 37 1017.2
20260503230611 21 232 4.8 9.7 0.00 0.05 0.05 35 1017.2
20260503230111 21 214 4.8 9.7 0.00 0.08 0.05 35 1017.3
20260503225611 22 205 4.8 9.7 0.00 0.08 0.05 32 1017.3
20260503225111 22 215 3.2 8.0 0.00 0.08 0.05 32 1017.4
20260503224611 22 280 3.2 4.8 0.00 0.08 0.05 34 1017.4
20260503224112 22 250 3.2 9.7 0.00 0.08 0.05 33 1017.4
20260503223611 22 283 4.8 12.9 0.00 0.08 0.05 32 1017.5
20260503223106 22 234 4.8 12.9 0.00 0.08 0.05 32 1017.5
20260503222607 22 153 4.8 16.1 0.00 0.08 0.05 32 1017.4
20260503222107 22 228 4.8 16.1 0.00 0.08 0.05 32 1017.5
20260503221607 22 200 3.2 6.4 0.00 0.08 0.05 32 1017.5
20260503221107 22 278 3.2 9.7 0.00 0.08 0.05 32 1017.6
20260503220607 22 300 3.2 9.7 0.00 0.08 0.05 31 1017.6
20260503220107 22 314 3.2 11.3 0.00 0.08 0.05 33 1017.7